Regional Weather Roundup
Issued by NWS

Home | Current Version | Previous Version | Text Only | Print | Product List | Glossary Off
Versions: 1 2 3 4 5 6 7 8 9 10 11 12 13 14 15 16 17 18 19 20 21 22 23 24 25 26 27 28 29 30 31 32 33 34 35 36 37 38 39 40 41 42 43 44 45 46 47 48 49 50

000
ASUS45 KSLC 270410
RWRUT

UTAH REGIONAL WEATHER ROUNDUP
NATIONAL WEATHER SERVICE SALT LAKE CITY UT
1000 PM MDT SUN APR 26 2015

UTZ001>011-023>025-270500-

NORTHERN UTAH

CITY           SKY/WX    TMP DP  RH WIND       PRES   REMARKS
BRIGHAM CITY   CLOUDY    49  37  61 W3        30.13R
HILL AFB       CLOUDY    47  32  55 SE3       30.12R
LOGAN          MOCLDY    46  37  71 S3        30.12R
OGDEN          CLOUDY    50  34  54 N3        30.11R
PROVO AIRPORT  CLOUDY    48  34  57 N13       30.11R
SALT LAKE CITY MOCLDY    49  38  65 CALM      30.11R
VERNAL         MOCLDY    50  30  46 N3        29.99R
WENDOVER       CLEAR     52  14  22 N18       30.16R
HEBER CITY     CLOUDY    43  32  65 NE10      30.12R
WEST JORDAN    CLOUDY    46  37  71 NW5       30.13R

$$

UTZ012>022-026-027-270500-

SOUTHERN/CENTRAL UTAH

CITY           SKY/WX    TMP DP  RH WIND       PRES   REMARKS
BLANDING       PTCLDY    48  36  62 N10G16    29.96R
BRYCE CANYON   CLOUDY    36  24  62 N23G31    30.08R WCI  24
CEDAR CITY     MOCLDY    41  31  67 N9        30.08R
DELTA          MOCLDY    43  32  64 NE9       30.12R
HANKSVILLE     CLEAR     50  28  43 NW20      29.97R
MILFORD        PTCLDY    43  25  49 N10       30.10R
MOAB/CYNLANDS  CLOUDY    49  45  86 E5        29.91R
PRICE          NOT AVBL
ST GEORGE      MOCLDY    61  25  25 NE16G25   29.98R
KANAB          CLEAR     46  27  46 N14G24    30.04R

$$

REGIONAL REPORTS     COLORADO/ARIZONA

CITY           SKY/WX    TMP DP  RH WIND       PRES   REMARKS
CRAIG, CO      LGT RAIN  42  39  89 NW6       30.00R
GRAND JUNCTION CLOUDY    46  45  96 CALM      29.93R
RIFLE          CLOUDY    46  39  76 CALM      29.95R
MONTROSE       CLOUDY    45  42  89 NW5       29.96R
CORTEZ         CLOUDY    47  39  74 CALM      29.88R
PAGE, AZ       CLEAR     55  27  34 W8        29.92R
GRAND CANYON   CLEAR     37  28  70 CALM      30.00R
KINGMAN        CLEAR     53  25  33 N5        29.95R
FLAGSTAFF      PTCLDY    39  28  64 NW6       29.99R WCI  35

$$

REGIONAL REPORTS    NEVADA/IDAHO/WYOMING

CITY           SKY/WX    TMP DP  RH WIND       PRES   REMARKS
LAS VEGAS, NV  PTCLDY    67  18  15 N8        29.93R
ELY            CLEAR     36  19  50 N9        30.17R WCI  29
ELKO           PTCLDY    42  22  44 NW6       30.21R
POCATELLO, ID  CLOUDY    49  36  61 NE5       30.15R
BURLEY         PTCLDY    45  19  35 W14G22    30.15R
EVANSTON, WY   CLOUDY    34  30  85 NW7       30.14R WCI  28
ROCK SPRINGS   CLOUDY    38  35  89 NE16      30.09R WCI  29
KEMMERER       CLOUDY    36  30  80 NW14      30.12R WCI  27

$$



USA.gov is the U.S. government's official web portal to all federal, state and local government web resources and services.